Location: eljas
(40.1958°N, 6.8661°W)
Time: 20:27:32
(UTC+01:00)

ISS - All Passes

Search period start: 24 February 2017 00:00
Search period end: 06 March 2017 00:00
Orbit: 399 x 408 km, 51.6° (Epoch: 25 February)

Date Brightness Start Highest point End Pass type
(mag) Time Alt. Az. Time Alt. Az. Time Alt. Az.
24 Feb - 08:38:24 10° SSE 08:40:12 14° SE 08:42:01 10° E daylight
24 Feb - 10:13:03 10° WSW 10:16:19 61° NW 10:19:36 10° NE daylight
24 Feb - 11:51:12 10° NW 11:53:19 16° NNW 11:55:25 10° NNE daylight
24 Feb - 13:29:35 10° NNW 13:30:51 12° N 13:32:07 10° NNE daylight
24 Feb - 15:05:28 10° NNW 15:08:14 24° NNE 15:10:59 10° E daylight
24 Feb - 16:41:39 10° WNW 16:44:50 48° SW 16:48:00 10° SSE daylight
25 Feb - 09:20:32 10° SW 09:23:49 68° SE 09:27:06 10° ENE daylight
25 Feb - 10:57:59 10° WNW 11:00:32 21° NNW 11:03:08 10° NNE daylight
25 Feb - 12:36:48 10° NNW 12:37:59 11° N 12:39:10 10° NNE daylight
25 Feb - 14:13:10 10° NNW 14:15:29 18° NNE 14:17:48 10° ENE daylight
25 Feb - 15:49:04 10° NW 15:52:22 83° NE 15:55:38 10° SE daylight
26 Feb - 08:28:22 10° SSW 08:31:22 33° SE 08:34:23 10° ENE daylight
26 Feb - 10:04:53 10° W 10:07:50 30° NNW 10:10:49 10° NE daylight
26 Feb - 11:43:39 10° NW 11:45:07 12° N 11:46:35 10° NNE daylight
26 Feb - 13:20:51 10° NNW 13:22:41 14° NNE 13:24:31 10° NE daylight
26 Feb - 14:56:37 10° NW 14:59:48 44° NNE 15:02:57 10° ESE daylight
26 Feb - 16:33:35 10° W 16:36:03 20° SW 16:38:29 10° S daylight
27 Feb - 07:36:45 10° S 07:39:01 17° SE 07:41:16 10° E visible
27 Feb - 09:11:59 10° WSW 09:15:12 50° NNW 09:18:26 10° NE daylight
27 Feb - 10:50:19 10° NW 10:52:16 15° NNW 10:54:13 10° NNE daylight
27 Feb - 12:28:26 10° NNW 12:29:49 12° N 12:31:12 10° NNE daylight
27 Feb - 14:04:15 10° NW 14:07:08 27° NNE 14:10:01 10° E daylight
27 Feb - 15:40:35 10° WNW 15:43:39 38° SW 15:46:44 10° SSE daylight
28 Feb - 08:19:20 10° SW 08:22:37 85° SE 08:25:56 10° NE daylight
28 Feb - 09:57:01 10° WNW 09:59:27 19° NNW 10:01:53 10° NNE daylight
28 Feb - 11:35:45 10° NNW 11:36:55 11° N 11:38:05 10° NNE daylight
28 Feb - 13:11:54 10° NNW 13:14:23 19° NNE 13:16:52 10° ENE daylight
28 Feb - 14:47:53 10° NW 14:51:11 79° SW 14:54:27 10° SE daylight
01 Mar - 07:27:00 10° SSW 07:30:07 41° SE 07:33:16 10° ENE visible
01 Mar - 09:03:49 10° W 09:06:40 26° NNW 09:09:31 10° NE daylight
01 Mar - 10:42:39 10° NNW 10:44:01 12° N 10:45:21 10° NNE daylight
01 Mar - 12:19:34 10° NNW 12:21:34 15° NNE 12:23:33 10° NE daylight
01 Mar - 13:55:21 10° NW 13:58:36 54° NNE 14:01:49 10° ESE daylight
01 Mar - 15:32:39 10° W 15:34:45 16° SW 15:36:50 10° S daylight
02 Mar - 06:35:07 10° S 06:37:41 21° SE 06:40:16 10° E visible
02 Mar - 08:10:49 10° WSW 08:13:58 42° NNW 08:17:08 10° NE daylight
02 Mar - 09:49:19 10° NW 09:51:06 14° NNW 09:52:53 10° NNE daylight
02 Mar - 11:27:09 10° NNW 11:28:40 12° N 11:30:11 10° NE daylight
02 Mar - 13:02:55 10° NW 13:05:55 31° NNE 13:08:54 10° E daylight
02 Mar - 14:39:25 10° WNW 14:42:21 30° SW 14:45:17 10° SSE daylight
03 Mar - 05:44:24 10° SE 05:45:19 11° SE 05:46:15 10° ESE visible
03 Mar - 07:18:03 10° WSW 07:21:20 78° NW 07:24:38 10° NE visible
03 Mar - 08:55:57 10° WNW 08:58:14 17° NNW 09:00:30 10° NNE daylight
03 Mar - 10:34:32 10° NNW 10:35:45 11° N 10:36:56 10° NNE daylight
03 Mar - 12:10:32 10° NNW 12:13:10 21° NNE 12:15:46 10° ENE daylight
03 Mar - 13:46:36 10° WNW 13:49:52 63° SW 13:53:06 10° SE daylight
04 Mar - 06:25:33 10° SW 06:28:46 52° SE 06:31:59 10° ENE visible
04 Mar - 08:02:40 10° W 08:05:24 23° NNW 08:08:08 10° NNE daylight
04 Mar - 09:41:32 10° NNW 09:42:46 12° N 09:44:03 10° NNE daylight
04 Mar - 11:18:09 10° NNW 11:20:19 16° NNE 11:22:28 10° ENE daylight
04 Mar - 12:53:59 10° NW 12:57:17 66° NE 13:00:32 10° ESE daylight
04 Mar - 14:31:45 10° W 14:33:20 13° SW 14:34:55 10° SSW daylight
05 Mar - 05:33:29 10° SSW 05:36:16 26° SE 05:39:05 10° ENE visible
05 Mar - 07:09:34 10° W 07:12:38 35° NNW 07:15:43 10° NE visible
05 Mar - 08:48:11 10° NW 08:49:50 13° N 08:51:28 10° NNE daylight
05 Mar - 10:25:45 10° NNW 10:27:24 13° N 10:29:03 10° NE daylight
05 Mar - 12:01:29 10° NW 12:04:35 36° NNE 12:07:40 10° E daylight
05 Mar - 13:38:10 10° WNW 13:40:55 25° SW 13:43:40 10° S daylight
